Location: Bernadets
(43.3537°N, 0.3167°E)
Time: 23:44:18
(UTC+00:00)

Cosmos 2360 Rocket - Pass Details

Date: 24 October 2021
Orbit: 832 x 846 km, 71.0° (Epoch: 06 December)

Event Time Altitude Azimuth Distance (km) Brightness Sun altitude
Rises 18:12:20 0° 185° (S) 3,371 5.5 -13.5°
Reaches altitude 10° 18:14:49 10° 180° (S) 2,443 4.7 -14.0°
Maximum altitude 18:20:10 47° 108° (ESE) 1,096 2.4 -15.0°
Drops below altitude 10° 18:25:34 10° 36° (NE) 2,468 4.3 -15.9°
Enters shadow 18:26:29 - 33° (NNE) 2,801 4.6 -16.1°
